Regional Weather Roundup
Issued by NWS

Home | Current Version | Previous Version | Text Only | Print | Product List | Glossary Off
Versions: 1 2 3 4 5 6 7 8 9 10 11 12 13 14 15 16 17 18 19 20 21 22 23 24 25 26 27 28 29 30 31 32 33 34 35 36 37 38 39 40 41 42 43 44 45 46 47 48 49 50

000
ASUS43 KIND 022259
RWRIN

WEATHER ROUNDUP FOR INDIANA
NATIONAL WEATHER SERVICE INDIANAPOLIS IN
700 PM EDT WED SEP 02 2015

NOTE: "FAIR" INDICATES FEW OR NO CLOUDS BELOW 12,000 FEET WITH NO
SIGNIFICANT WEATHER AND/OR OBSTRUCTIONS TO VISIBILITY.

* - STATION DOES NOT REPORT WEATHER SUCH AS PRECIPITATION OR FOG.

+ - STATION NOT QUALITY CONTROLLED BY THE NATIONAL WEATHER SERVICE.
    USE DATA WITH CAUTION...ESPECIALLY DEWPOINT AND RELATIVE
    HUMIDITY OBSERVATIONS.

INZ001>003-010>013-019-020-030000-
NORTHWEST INDIANA

CITY           SKY/WX    TMP DP  RH WIND       PRES   REMARKS
GARY /AIRPORT/ MOSUNNY   90  64  43 W17       29.96F
KNOX *+        MOSUNNY   82  68  61 CALM      29.97S
MONTICELLO +   SUNNY     85  69  58 SW6       29.99S
RENSSELAER +   PTSUNNY   86  70  58 SW6       29.99S

$$

LMZ046-743>745-030000-
SOUTHERN LAKE MICHIGAN

STATION/POSITION TIME  TEMP    WIND        PRES    WAVE
                       AIR SEA DIR/SP/G            HT
                 (UTC) (F)     (DEG/KT/KT) (MB)    (FT)
BURNS HARBOR     2200   86     230/  9/ 12 1014.9F
MICHIGAN CITY    2200   85     120/  1/  1   N/A
5NW MICH CITY    2200   81 77  140/  4/  6   N/A     0

$$

INZ004-005-014>016-021>024-030000-
NORTH CENTRAL INDIANA

CITY           SKY/WX    TMP DP  RH WIND       PRES   REMARKS
ELKHART        MOSUNNY   84  72  65 W3        29.98R
GOSHEN         MOSUNNY   85  70  60 W7        29.98F
PERU/GRISSOM   SUNNY     87  69  55 W8        29.98F
SOUTH BEND     SUNNY     84  69  60 W6        29.98F

$$

INZ006>009-017-018-025>027-030000-
NORTHEAST INDIANA

CITY           SKY/WX    TMP DP  RH WIND       PRES   REMARKS
ANGOLA *+      MOSUNNY   88  72  58 CALM      29.99F
FORT WAYNE     MOSUNNY   86  68  54 SW7       29.99F

$$

INZ028-029-035-036-043>045-051>053-030000-
WEST CENTRAL INDIANA

CITY           SKY/WX    TMP DP  RH WIND       PRES   REMARKS
GREENCASTLE +  MOSUNNY   84  64  51 CALM      30.02F
LAFAYETTE      MOSUNNY   87  66  49 SW6       29.99S
TERRE HAUTE    MOSUNNY   87  66  49 SW6       30.01S

$$

INZ030>032-037>040-046>048-054>057-064-065-030000-
CENTRAL INDIANA

CITY           SKY/WX    TMP DP  RH WIND       PRES   REMARKS
COLUMBUS       MOSUNNY   84  64  51 SW8       30.02F
FRANKFORT +    SUNNY     85  71  63 SW5       30.03S
GREENWOOD *+   SUNNY     84  63  48 W7        30.02F
INDIANAPOLIS   MOSUNNY   85  67  54 SW10      30.00F
-EAGLE CREEK   SUNNY     85  67  54 SW6       30.00F
KOKOMO *+      SUNNY     88  68  51 W12       29.99F
MT COMFORT *+  MOSUNNY   86  57  37 SW7       30.01F
SHELBYVILLE    SUNNY     87  67  51 W8        30.00F
ZIONSVILLE +   SUNNY     85  65  50 W5        30.02F

$$

INZ033-034-041-042-049-050-058-059-030000-
EAST CENTRAL INDIANA

CITY           SKY/WX    TMP DP  RH WIND       PRES   REMARKS
MUNCIE         SUNNY     83  69  62 NW7       30.00F

$$

INZ060-061-067>069-081>083-085>088-030000-
SOUTHWEST INDIANA

CITY           SKY/WX    TMP DP  RH WIND       PRES   REMARKS
EVANSVILLE     SUNNY     90  62  39 CALM      30.00F
HUNTINGBURG *+ SUNNY     88  64  45 W5        30.01F

$$

INZ062-063-066-070>080-084-089>092-030000-
SOUTH CENTRAL AND SOUTHEAST INDIANA

CITY           SKY/WX    TMP DP  RH WIND       PRES   REMARKS
BLOOMINGTON    SUNNY     86  69  56 CALM      30.02F
SEYMOUR +      SUNNY     90  66  45 CALM      30.01F

$$




USA.gov is the U.S. government's official web portal to all federal, state and local government web resources and services.